Regional Weather Roundup
Issued by NWS

Home | Current Version | Previous Version | Graphics & Text | Print | Product List | Glossary On
Versions: 1 2 3 4 5 6 7 8 9 10 11 12 13 14 15 16 17 18 19 20 21 22 23 24 25 26 27 28 29 30 31 32 33 34 35 36 37 38 39 40 41 42 43 44 45 46 47 48 49 50
000
ASUS43 KLSX 211510
RWRMO

WEATHER SUMMARY FOR MISSOURI
NATIONAL WEATHER SERVICE SPRINGFIELD MO
900 AM CST TUE FEB 21 2017

NOTE: "FAIR" INDICATES FEW OR NO CLOUDS BELOW 12,000 FEET WITH NO
       SIGNIFICANT WEATHER AND/OR OBSTRUCTIONS TO VISIBILITY.
       CURRENT SKY AND/OR WEATHER CONDITIONS ARE NOT AVAILABLE FOR
       CHILLICOTHE AND FARMINGTON.

MOZ001>031-035>038-043-044-053-054-211600-
...NORTHERN AND WESTERN MISSOURI...

CITY           SKY/WX    TMP DP  RH WIND       PRES   REMARKS
KANSAS CTY INT SUNNY     51  45  79 N8        29.99R
KANSAS C DTWN  MOSUNNY   52  45  77 CALM      29.98R
LEE`S SUMMIT   PTSUNNY   50  47  89 N10       29.98R
ST JOSEPH      SUNNY     47  45  93 N5        30.01R
CHILLICOTHE      N/A     51  46  83 N6        30.00R
KIRKSVILLE     MOSUNNY   53  45  74 NE9       29.97R

$$
MOZ066>068-077>081-088>096-101>105-211600-
...SOUTHWEST MISSOURI...

CITY           SKY/WX    TMP DP  RH WIND       PRES   REMARKS
SPRINGFIELD    PTSUNNY   58  56  93 N8        29.91S
JOPLIN         PTSUNNY   53  53 100 N3        29.95R
BRANSON        CLOUDY    55  55 100 NW8       29.91S

$$
MOZ032>034-039>042-045>050-055>058-069>072-211600-
...CENTRAL MISSOURI...

CITY           SKY/WX    TMP DP  RH WIND       PRES   REMARKS
COLUMBIA       CLOUDY    58  56  93 N10       29.93F
JEFFERSON CITY CLOUDY    59  55  87 CALM      29.92S
ROLLA          CLOUDY    58  58 100 NE6       29.90R
SEDALIA        PTSUNNY   57  53  86 N7        29.95S
WHITEMAN AFB   PTSUNNY   55  55 100 NE7       29.94R
WARRENSBURG    CLOUDY    54  46  76 N8        29.96R
OSAGE BEACH    CLOUDY    58  56  93 VRB3      29.93R

$$
MOZ051-052-059>065-211600-
...EAST CENTRAL MISSOURI...

CITY           SKY/WX    TMP DP  RH WIND       PRES   REMARKS
ST LOUIS INTL  LGT RAIN  61  59  93 E8        29.93R FOG
SPIRIT OF STL  LGT RAIN  60  60 100 E6        29.91S FOG
ST CHARLES     LGT RAIN  59  59 100 E7        29.92R FOG

$$
MOZ072>076-082>087-097>100-106>115-211600-
...SOUTH CENTRAL AND SOUTHEAST MISSOURI...

CITY           SKY/WX    TMP DP  RH WIND       PRES   REMARKS
CAPE GIRARDEAU CLOUDY    60  52  74 NE6       29.91S
FARMINGTON     LGT RAIN  58  57  97 E7        29.93R
POPLAR BLUFF   LGT RAIN  59  56  89 E12       29.88R
WEST PLAINS    CLOUDY    58  57  97 E8        29.90R FOG

$$



USA.gov is the U.S. government's official web portal to all federal, state and local government web resources and services.